Meteopurmerend
purmerend
Purmerend - Baaienwijk



My webcam  My webcam


Onweer radar Meer informatie blitzortung!


Regen radar Meer informatie rain snow radar


Bezoek onze andere website:

CandyAppleRed WebdesignWebdesign Purmerend Candy Apple Red

MeteopurmerendBlog

Template documentation
and downloads



Het weer levert geen direct gevaar op.    Er zijn geen waarschuwingen afgegeven.

15 daagse weersverwachting Stavanger (NO)

  • Overzicht
  • Per uur
  • 15 dagen
  • Extra
  • Vergelijk
  • Kaarten
  • Dagkaart
  • Meer »
  • Info
  • Statistieken
  • Directe link
    Temp 6h Neerslag Wind  
 04:46     22:24    Daglengte: 17:38 Vandaag
08:00
10°
3.0 mm
8
14:00
11°
5.2 mm
7
20:00
10°
 
5
 04:44     22:26    Daglengte: 17:42 Morgen
02:00
9.8 mm
4
08:00
11.6 mm
5
14:00
10°
6.3 mm
7
20:00
10°
 
10
 04:43     22:28    Daglengte: 17:45 Zaterdag 28 Mei
02:00
 
10
08:00
10°
 
10
14:00
11°
 
11
20:00
 
11
 04:41     22:30    Daglengte: 17:49 Zondag 29 Mei
02:00
 
9
Locatie info
Region: Rogaland
Latitude: 58.9710°N
Longitude: 5.7306°E
15 masl
Postcode: 4006
Temp/Neerslag /Baro Onweer/Dauwpunt
    Temp Baro 1h Neerslag Dauwpunt Wind UV Bewolking  
 04:46     22:24    Daglengte: 17:38 Vandaag
07:00
10°
Voelt als: 6.4°
1003.6 hPa 3.0 mm
48%
7.5°
8
Windvlaag: -0.3 m/s
62%
08:00
10°
1004.3 hPa
82%
6.9°
8
Windvlaag: -0.6 m/s
18%
09:00
10°
1005.0 hPa
80%
7.3°
8
Windvlaag: 0.1 m/s
17%
10:00
10°
1005.6 hPa 1.8 mm
82%
7.6°
8
Windvlaag: 1.1 m/s
16%
11:00
10°
1006.4 hPa 1.7 mm
82%
7.4°
7
Windvlaag: 1 m/s
9%
12:00
11°
1006.9 hPa
82%
7.2°
7
Windvlaag: 1 m/s
10%
13:00
11°
1007.3 hPa 1.8 mm
81%
6.8°
7
Windvlaag: 1 m/s
11%
14:00
11°
1007.5 hPa
82%
6.3°
7
Windvlaag: 1.9 m/s
16%
15:00
11°
1007.8 hPa
80%
5.5°
7
Windvlaag: 2.1 m/s
13%
16:00
11°
1007.9 hPa
82%
5.3°
7
Windvlaag: 2.3 m/s
13%
17:00
11°
1007.9 hPa
82%
5.1°
6
Windvlaag: 2.5 m/s
5%
18:00
11°
1007.4 hPa
80%
4.7°
5
Windvlaag: 2.6 m/s
12%
19:00
11°
1006.7 hPa
72%
5.0°
5
Windvlaag: 4.3 m/s
8%
20:00
10°
1006.1 hPa
66%
6.9°
5
Windvlaag: 6.2 m/s
37%
21:00
10°
Voelt als: 7.5°
1005.7 hPa
81%
7.5°
5
Windvlaag: 6.3 m/s
71%
22:00
Voelt als: 7.2°
1005.6 hPa
82%
7.3°
4
Windvlaag: 5.6 m/s
75%
23:00
Voelt als: 7.1°
1005.6 hPa 2.5 mm
82%
7.1°
4
Windvlaag: 4.7 m/s
73%
 04:44     22:26    Daglengte: 17:42 Morgen
00:00
Voelt als: 6.5°
1005.6 hPa 2.2 mm
82%
6.7°
5
Windvlaag: 6.4 m/s
81%
01:00
Voelt als: 6.9°
1005.4 hPa 2.5 mm
81%
6.6°
3
Windvlaag: 3.2 m/s
16%
02:00
Voelt als: 6.4°
1005.2 hPa 2.6 mm
80%
6.8°
4
Windvlaag: 4.5 m/s
15%
03:00
Voelt als: 6.0°
1004.6 hPa 2.7 mm
82%
6.9°
4
Windvlaag: 5.3 m/s
72%
04:00
Voelt als: 5.8°
1004.3 hPa 3.0 mm
82%
6.6°
5
Windvlaag: 6.6 m/s
69%
05:00
Voelt als: 6.1°
1004.1 hPa 2.9 mm
82%
6.6°
5
Windvlaag: 4.9 m/s
55%
06:00
Voelt als: 5.6°
1004.1 hPa
82%
6.6°
6
Windvlaag: 2.6 m/s
27%
07:00
Voelt als: 5.8°
1004.1 hPa
82%
6.2°
6
Windvlaag: 1.2 m/s
22%
08:00
Voelt als: 6.2°
1004.3 hPa 2.9 mm
82%
6.6°
5
Windvlaag: 0.6 m/s
61%
09:00
Voelt als: 6.0°
1004.6 hPa 3.2 mm
82%
6.3°
6
Windvlaag: -1.2 m/s
79%
10:00
Voelt als: 6.2°
1004.9 hPa 3.1 mm
82%
6.3°
6
Windvlaag: -1.4 m/s
24%
11:00
10°
Voelt als: 6.5°
1005.1 hPa
81%
6.5°
7
Windvlaag: -1.2 m/s
11%
12:00
10°
Voelt als: 7.0°
1005.5 hPa
80%
6.8°
7
Windvlaag: -1 m/s
9%
13:00
10°
1005.7 hPa
41%
7.1°
7
Windvlaag: -1.2 m/s
17%
14:00
10°
1005.9 hPa
73%
6.7°
7
Windvlaag: -0.6 m/s
15%
15:00
11°
1006.3 hPa
34%
6.1°
8
Windvlaag: -1.6 m/s
15%
16:00
11°
1006.7 hPa
29%
5.7°
9
Windvlaag: -4.3 m/s
6%
17:00
11°
1007.1 hPa
24%
6.3°
10
Windvlaag: -6.3 m/s
9%
18:00
11°
1007.6 hPa
58%
6.1°
10
Windvlaag: -6.2 m/s
10%
19:00
11°
1008.0 hPa
25%
5.8°
10
Windvlaag: -6.3 m/s
8%
20:00
10°
1008.4 hPa
21%
5.4°
10
Windvlaag: -6.4 m/s
16%
21:00
10°
Voelt als: 6.2°
1008.8 hPa
15%
5.5°
10
Windvlaag: -8.1 m/s
51%
22:00
Voelt als: 5.6°
1009.3 hPa
15%
5.4°
10
Windvlaag: -8.8 m/s
20%
23:00
Voelt als: 5.0°
1010.0 hPa
16%
5.3°
10
Windvlaag: -8.9 m/s
42%
 04:43     22:28    Daglengte: 17:45 Zaterdag 28 Mei
00:00
Voelt als: 4.8°
1010.2 hPa
26%
5.2°
10
Windvlaag: -8.6 m/s
13%
01:00
Voelt als: 5.2°
1010.2 hPa
18%
5.3°
9
Windvlaag: -9.1 m/s
21%
02:00
Voelt als: 5.1°
1010.3 hPa
29%
5.0°
10
Windvlaag: -8.7 m/s
19%
03:00
Voelt als: 5.5°
1010.6 hPa
21%
5.4°
9
Windvlaag: -9.6 m/s
42%
04:00
Voelt als: 5.4°
1010.8 hPa
27%
6.1°
10
Windvlaag: -9.5 m/s
68%
05:00
Voelt als: 5.0°
1011.4 hPa
42%
7.3°
10
Windvlaag: -9.8 m/s
89%
06:00
Voelt als: 5.3°
1011.7 hPa
81%
7.6°
10
Windvlaag: -9.6 m/s
86%
07:00
Voelt als: 5.4°
1012.0 hPa
40%
7.9°
10
Windvlaag: -9.3 m/s
79%
08:00
10°
Voelt als: 5.8°
1012.4 hPa
39%
7.8°
10
Windvlaag: -9 m/s
76%
09:00
10°
Voelt als: 6.1°
1012.8 hPa
43%
7.8°
10
Windvlaag: -9.1 m/s
92%
10:00
10°
1013.3 hPa
44%
7.8°
10
Windvlaag: -8.7 m/s
93%
11:00
10°
1013.4 hPa
32%
7.9°
10
Windvlaag: -8.3 m/s
53%
12:00
11°
1013.7 hPa
27%
7.8°
11
Windvlaag: -8.6 m/s
63%
13:00
11°
1013.8 hPa
21%
6.5°
11
Windvlaag: -9.8 m/s
49%
14:00
11°
1014.0 hPa
21%
6.6°
11
Windvlaag: -10.4 m/s
57%
15:00
11°
1014.0 hPa
22%
6.3°
12
Windvlaag: -11.1 m/s
52%
16:00
11°
1014.3 hPa
24%
6.1°
12
Windvlaag: -11.4 m/s
47%
17:00
10°
1014.4 hPa
27%
6.1°
12
Windvlaag: -11.1 m/s
64%
18:00
10°
1014.7 hPa
23%
5.6°
12
Windvlaag: -10.7 m/s
51%
19:00
10°
Voelt als: 5.7°
1014.9 hPa
21%
5.4°
11
Windvlaag: -10.7 m/s
57%
20:00
Voelt als: 5.3°
1014.8 hPa
21%
5.4°
11
Windvlaag: -10.2 m/s
57%
21:00
Voelt als: 5.0°
1014.7 hPa
21%
5.7°
10
Windvlaag: -9.7 m/s
24%
22:00
Voelt als: 4.9°
1014.5 hPa
21%
5.7°
10
Windvlaag: -9.3 m/s
46%
23:00
Voelt als: 4.4°
1014.2 hPa
21%
5.2°
10
Windvlaag: -8.8 m/s
66%
 04:41     22:30    Daglengte: 17:49 Zondag 29 Mei
00:00
Voelt als: 4.2°
1013.4 hPa
21%
6.2°
10
Windvlaag: 11.2 m/s
76%
01:00
Voelt als: 4.1°
1013.1 hPa
21%
5.5°
9
Windvlaag: 10.4 m/s
70%
02:00
Voelt als: 3.9°
1012.8 hPa
21%
5.2°
9
Windvlaag: 11.9 m/s
73%
03:00
Voelt als: 3.7°
1012.4 hPa
21%
5.7°
8
Windvlaag: 10.5 m/s
70%
04:00
Voelt als: 3.6°
1012.2 hPa
21%
5.6°
8
Windvlaag: 11 m/s
60%
05:00
Voelt als: 3.6°
1011.8 hPa
21%
5.4°
8
Windvlaag: 11.2 m/s
22%
06:00
Voelt als: 3.9°
1011.4 hPa
21%
5.6°
8
Windvlaag: 11.1 m/s
40%
Temp/Neerslag /Baro Onweer/Dauwpunt
    Temp Baro Neerslag Dauwpunt Wind Bewolking  
 04:46     22:24    Daglengte: 17:38 Vandaag
08:00
10°
1004.3 hPa 3.0 mm 6.9°
8
18%
11:00
10°
1006.4 hPa 3.4 mm 7.4°
7
9%
14:00
11°
1007.5 hPa 1.8 mm 6.3°
7
16%
17:00
11°
1007.9 hPa   5.1°
6
5%
20:00
10°
1006.1 hPa   6.9°
5
37%
23:00
Voelt als: 7.1°
1005.6 hPa 2.5 mm 7.1°
4
73%
 04:44     22:26    Daglengte: 17:42 Morgen
02:00
Voelt als: 6.4°
1005.2 hPa 7.3 mm 6.8°
4
15%
05:00
Voelt als: 6.1°
1004.1 hPa 8.7 mm 6.6°
5
55%
08:00
Voelt als: 6.2°
1004.3 hPa 2.9 mm 6.6°
5
61%
11:00
10°
Voelt als: 6.5°
1005.1 hPa 6.3 mm 6.5°
7
11%
14:00
10°
1005.9 hPa   6.7°
7
15%
17:00
11°
1007.1 hPa   6.3°
10
9%
20:00
10°
1008.4 hPa   5.4°
10
16%
23:00
Voelt als: 5.0°
1010.0 hPa   5.3°
10
42%
 04:43     22:28    Daglengte: 17:45 Zaterdag 28 Mei
02:00
Voelt als: 5.1°
1010.3 hPa   5.0°
10
19%
05:00
Voelt als: 5.0°
1011.4 hPa   7.3°
10
89%
08:00
10°
Voelt als: 5.8°
1012.4 hPa   7.8°
10
76%
11:00
10°
1013.4 hPa   7.9°
10
53%
14:00
11°
1014.0 hPa   6.6°
11
57%
17:00
10°
1014.4 hPa   6.1°
12
64%
20:00
Voelt als: 5.3°
1014.8 hPa   5.4°
11
57%
23:00
Voelt als: 4.4°
1014.2 hPa   5.2°
10
66%
 04:41     22:30    Daglengte: 17:49 Zondag 29 Mei
02:00
Voelt als: 3.9°
1012.8 hPa   5.2°
9
73%
05:00
Voelt als: 3.6°
1011.8 hPa   5.4°
8
22%
08:00
Voelt als: 4.9°
1010.9 hPa   4.1°
7
53%
11:00
Voelt als: 5.7°
1009.5 hPa 23.3 mm 3.6°
7
0%
14:00
10°
Voelt als: 7.4°
1008.6 hPa 23.3 mm 3.5°
5
0%
17:00
10°
1008.1 hPa 23.3 mm 5.3°
6
1%
20:00
10°
1008.0 hPa 23.4 mm 5.2°
2
1%
23:00
Voelt als: 7.3°
1008.8 hPa 24.5 mm 7.6°
4
1%
 04:40     22:31    Daglengte: 17:51 Maandag 30 Mei
02:00
11°
1008.6 hPa 24.7 mm 7.6°
3
1%
05:00
11°
1009.2 hPa 24.7 mm 6.8°
2
1%
08:00
11°
1010.2 hPa 24.7 mm 7.0°
2
1%
11:00
12°
1010.7 hPa 24.8 mm 6.9°
2
0%
14:00
12°
1010.7 hPa 24.8 mm 8.6°
3
0%
17:00
12°
1010.5 hPa 25.0 mm 8.7°
5
1%
20:00
11°
1010.5 hPa 25.0 mm 8.3°
4
1%
23:00
10°
1010.9 hPa 25.0 mm 8.2°
2
1%
 04:39     22:33    Daglengte: 17:54 Dinsdag 31 Mei
02:00
10°
Voelt als: 9.6°
1010.9 hPa 25.0 mm 7.6°
1
0%
05:00
10°
1010.6 hPa 25.0 mm 7.4°
1
0%
08:00
10°
1010.9 hPa 25.0 mm 7.9°
1
0%
11:00
11°
1011.6 hPa 25.0 mm 8.1°
2
0%
14:00
11°
1012.0 hPa 25.0 mm 8.0°
2
0%
17:00
11°
1012.3 hPa 25.0 mm 7.9°
2
1%
20:00
11°
1012.6 hPa 25.0 mm 7.7°
1
1%
23:00
11°
1013.1 hPa 25.0 mm 7.7°
1
1%
 04:37     22:35    Daglengte: 17:58 Woensdag 01 Jun
02:00
10°
Voelt als: 9.2°
1013.5 hPa 25.0 mm 7.9°
2
1%
05:00
Voelt als: 8.5°
1014.2 hPa 25.0 mm 7.3°
2
1%
08:00
10°
1015.3 hPa 25.0 mm 7.1°
1
1%
11:00
11°
1015.5 hPa 25.0 mm 7.1°
2
0%
14:00
11°
1016.7 hPa 25.0 mm 7.3°
2
1%
17:00
12°
1017.3 hPa 25.0 mm 7.5°
2
0%
20:00
11°
1017.1 hPa 25.0 mm 7.6°
2
0%
23:00
11°
1016.9 hPa 25.0 mm 8.0°
1
0%
 04:36     22:36    Daglengte: 18:00 Donderdag 02 Jun
02:00
11°
1017.3 hPa 25.0 mm 7.9°
1
0%
05:00
11°
1017.0 hPa   7.5°
2
0%
08:00
11°
1017.3 hPa 50.1 mm 7.5°
2
0%
14:00
12°
1017.6 hPa 50.1 mm 8.8°
2
0%
20:00
12°
1016.7 hPa 50.1 mm 8.8°
1
1%
 04:35     22:38    Daglengte: 18:03 Vrijdag 03 Jun
02:00
12°
1016.6 hPa 50.1 mm 8.2°
2
1%
08:00
13°
1016.8 hPa 50.1 mm 8.3°
0
1%
14:00
14°
1018.2 hPa 50.1 mm 9.5°
4
1%
20:00
14°
1018.3 hPa 50.1 mm 9.4°
3
1%
 04:34     22:39    Daglengte: 18:05 Zaterdag 04 Jun
02:00
13°
1019.0 hPa 50.1 mm 6.8°
2
1%
08:00
14°
1019.7 hPa 51.4 mm 11.1°
3
1%
14:00
18°
1019.7 hPa 51.6 mm 10.1°
2
1%
20:00
14°
1020.2 hPa 53.7 mm 12.2°
5
1%
 04:33     22:41    Daglengte: 18:08 Zondag 05 Jun
02:00
10°
1016.4 hPa 0.3 mm 7.8°
2
53%
08:00
11°
1015.8 hPa 0.5 mm 7.7°
2
68%
14:00
13°
1015.9 hPa 0.6 mm 7.9°
3
59%
20:00
13°
1015.0 hPa 0.2 mm 8.3°
3
49%
 04:32     22:42    Daglengte: 18:10 Maandag 06 Jun
02:00
11°
1015.4 hPa 0.2 mm 8.1°
2
51%
08:00
12°
1015.0 hPa 0.6 mm 8.1°
2
52%
14:00
14°
1014.9 hPa 0.6 mm 8.3°
4
50%
20:00
13°
1014.0 hPa 0.4 mm 8.7°
3
53%
 04:31     22:43    Daglengte: 18:12 Dinsdag 07 Jun
02:00
11°
1013.6 hPa 0.2 mm 8.3°
2
52%
08:00
12°
1012.3 hPa 0.5 mm 8.4°
1
63%
14:00
14°
1011.8 hPa 0.2 mm 9.1°
3
63%
20:00
13°
1011.3 hPa 0.6 mm 8.8°
3
58%
 04:30     22:44    Daglengte: 18:14 Woensdag 08 Jun
02:00
11°
1011.2 hPa 0.8 mm 8.6°
2
62%
08:00
12°
1010.9 hPa 0.7 mm 8.6°
2
69%
14:00
13°
1011.2 hPa 0.8 mm 8.9°
3
69%
20:00
13°
1010.7 hPa 0.8 mm 8.8°
3
64%
 04:29     22:46    Daglengte: 18:17 Donderdag 09 Jun
02:00
11°
1010.8 hPa 0.3 mm 8.4°
1
66%
08:00
12°
1010.2 hPa 0.6 mm 8.3°
1
69%
14:00
14°
1010.2 hPa 0.6 mm 8.5°
1
69%
20:00
13°
1009.9 hPa 0.9 mm 9.1°
2
63%
 04:29     22:47    Daglengte: 18:18 Vrijdag 10 Jun
02:00
11°
1010.1 hPa 1.1 mm 9.1°
1
75%
  CAPE Lifted Index Hail Supercell Tornado SRH 3km CL BTM PRES CL TOP PRES Swiss DWD icon SMHI TS
 04:46     22:24    Daglengte: 17:38 Vandaag
07:00 117 J/kg 2.2 K 0 % 0 % 0 % 0 m²/s² 0 0 3.01 80
08:00 140 J/kg 2.6 K 0 % 0 % 0 % 0 m²/s² 0 0 5.93 80
09:00 163 J/kg 2.8 K 0 % 0 % 0 % 0 m²/s² 0 0 6.58 2
10:00 185 J/kg 2.8 K 0 % 0 % 0 % 0 m²/s² 0 0 6.76 80
11:00 189 J/kg 2.8 K 0 % 0 % 0 % 0 m²/s² 0 0 8.08 80
12:00 193 J/kg 2.9 K 0 % 0 % 0 % 0 m²/s² 0 0 9.89 2
13:00 201 J/kg 2.8 K 0 % 0 % 0 % 0 m²/s² 0 0 8.11 2
14:00 166 J/kg 3.3 K 0 % 0 % 0 % 0 m²/s² 0 0 9.42 2
15:00 208 J/kg 2.9 K 0 % 0 % 0 % 0 m²/s² 0 0 8.33 2
16:00 161 J/kg 2.9 K 0 % 0 % 0 % 0 m²/s² 0 0 10.76 2
17:00 143 J/kg 2.7 K 0 % 0 % 0 % 0 m²/s² 0 0 9.99 1
18:00 151 J/kg 1.9 K 0 % 0 % 0 % 0 m²/s² 0 0 9.49 2
19:00 107 J/kg 1.8 K 0 % 0 % 0 % 0 m²/s² 0 0 8.58 2
20:00 83 J/kg 1.5 K 0 % 0 % 0 % 0 m²/s² 0 0 8.04 3
21:00 131 J/kg 0.9 K 0 % 0 % 0 % 0 m²/s² 0 0 4.77 3
22:00 207 J/kg 1.0 K 0 % 0 % 0 % 0 m²/s² 0 0 2.86 80
23:00 303 J/kg -0.1 K 0 % 0 % 0 % 0 m²/s² 0 0 0.41 61
 04:44     22:26    Daglengte: 17:42 Morgen
00:00 62 J/kg 0.9 K 0 % 0 % 0 % 0 m²/s² 0 0 1.38 3
01:00 101 J/kg 0.3 K 0 % 0 % 0 % 0 m²/s² 0 0 1.02 2
02:00 153 J/kg -0.1 K 0 % 0 % 0 % 0 m²/s² 0 0 2.69 2
03:00 311 J/kg -1.0 K 0 % 0 % 0 % 0 m²/s² 0 0 1.01 80
04:00 147 J/kg 0.3 K 0 % 0 % 0 % 0 m²/s² 0 0 3.3 80
05:00 249 J/kg 0.1 K 0 % 0 % 0 % 0 m²/s² 0 0 3.34 80
06:00 292 J/kg -0.4 K 0 % 0 % 0 % 0 m²/s² 0 0 0.98 80
07:00 207 J/kg 0.0 K 0 % 0 % 0 % 0 m²/s² 0 0 0.99 80
08:00 357 J/kg -1.4 K 0 % 0 % 0 % 0 m²/s² 0 0 -0.47 80
09:00 388 J/kg -1.6 K 0 % 0 % 0 % 0 m²/s² 0 0 -0.04 80
10:00 313 J/kg -1.2 K 0 % 0 % 0 % 0 m²/s² 0 0 0 2
11:00 255 J/kg -1.0 K 0 % 0 % 0 % 0 m²/s² 0 0 -0.04 2
12:00 210 J/kg -1.0 K 0 % 0 % 0 % 0 m²/s² 0 0 0.47 2
13:00 199 J/kg -1.0 K 0 % 0 % 0 % 0 m²/s² 0 0 1.1 2
14:00 146 J/kg -0.6 K 0 % 0 % 0 % 0 m²/s² 0 0 0.51 2
15:00 129 J/kg -0.6 K 0 % 0 % 0 % 0 m²/s² 0 0 0.42 2
16:00 152 J/kg -0.5 K 0 % 0 % 0 % 0 m²/s² 0 0 0.58 1
17:00 229 J/kg -1.0 K 0 % 0 % 0 % 0 m²/s² 0 0 0.38 1
18:00 206 J/kg -0.6 K 0 % 0 % 0 % 0 m²/s² 0 0 1.5 1
19:00 17 J/kg 1.3 K 0 % 0 % 0 % 0 m²/s² 0 0 4.51 1
20:00 15 J/kg 2.4 K 0 % 0 % 0 % 0 m²/s² 0 0 6.15 1
21:00 24 J/kg 3.5 K 0 % 0 % 0 % 0 m²/s² 0 0 9.41 3
22:00 27 J/kg 4.0 K 0 % 0 % 0 % 0 m²/s² 0 0 10.78 2
23:00 30 J/kg 4.2 K 0 % 0 % 0 % 0 m²/s² 0 0 8.22 2
 04:43     22:28    Daglengte: 17:45 Zaterdag 28 Mei
00:00 28 J/kg 3.9 K 0 % 0 % 0 % 0 m²/s² 0 0 5.64 2
01:00 46 J/kg 3.9 K 0 % 0 % 0 % 0 m²/s² 0 0 5.46 2
02:00 31 J/kg 4.6 K 0 % 0 % 0 % 0 m²/s² 0 0 6.07 2
03:00 25 J/kg 5.5 K 0 % 0 % 0 % 0 m²/s² 0 0 6.76 2
04:00 8 J/kg 5.7 K 0 % 0 % 0 % 0 m²/s² 0 0 6.54 2
05:00 7 J/kg 5.4 K 0 % 0 % 0 % 0 m²/s² 0 0 5.88 3
06:00 13 J/kg 6.0 K 0 % 0 % 0 % 0 m²/s² 0 0 6.63 3
07:00 8 J/kg 5.8 K 0 % 0 % 0 % 0 m²/s² 0 0 6.82 3
08:00 10 J/kg 5.9 K 0 % 0 % 0 % 0 m²/s² 0 0 8.12 3
09:00 11 J/kg 6.1 K 0 % 0 % 0 % 0 m²/s² 0 0 8.53 3
10:00 10 J/kg 6.2 K 0 % 0 % 0 % 0 m²/s² 0 0 8.54 3
11:00 9 J/kg 6.9 K 0 % 0 % 0 % 0 m²/s² 0 0 9.54 3
12:00 19 J/kg 7.3 K 0 % 0 % 0 % 0 m²/s² 0 0 10.51 3
13:00 12 J/kg 6.8 K 0 % 0 % 0 % 0 m²/s² 0 0 10.55 2
14:00 10 J/kg 6.9 K 0 % 0 % 0 % 0 m²/s² 0 0 11.25 3
15:00 3 J/kg 6.9 K 0 % 0 % 0 % 0 m²/s² 0 0 11.7 3
16:00 2 J/kg 6.6 K 0 % 0 % 0 % 0 m²/s² 0 0 11.91 3
17:00 2 J/kg 6.1 K 0 % 0 % 0 % 0 m²/s² 0 0 11.56 3
18:00 1 J/kg 6.2 K 0 % 0 % 0 % 0 m²/s² 0 0 11.36 3
19:00 2 J/kg 6.3 K 0 % 0 % 0 % 0 m²/s² 0 0 10.95 3
20:00 6 J/kg 6.5 K 0 % 0 % 0 % 0 m²/s² 0 0 10.91 3
21:00 10 J/kg 6.8 K 0 % 0 % 0 % 0 m²/s² 0 0 11.66 2
22:00 9 J/kg 7.5 K 0 % 0 % 0 % 0 m²/s² 0 0 13.56 3
23:00 11 J/kg 7.6 K 0 % 0 % 0 % 0 m²/s² 0 0 15.01 3
 04:41     22:30    Daglengte: 17:49 Zondag 29 Mei
00:00 24 J/kg 7.1 K 0 % 0 % 0 % 0 m²/s² 0 0 12.5 3
01:00 12 J/kg 7.7 K 0 % 0 % 0 % 0 m²/s² 0 0 12.2 3
02:00 31 J/kg 7.2 K 0 % 0 % 0 % 0 m²/s² 0 0 11.94 3
03:00 23 J/kg 7.1 K 0 % 0 % 0 % 0 m²/s² 0 0 13.13 3
04:00 6 J/kg 8.2 K 0 % 0 % 0 % 0 m²/s² 0 0 15.07 3
05:00 8 J/kg 8.2 K 0 % 0 % 0 % 0 m²/s² 0 0 14.83 2
06:00 34 J/kg 8.1 K 0 % 0 % 0 % 0 m²/s² 0 0 14.76 3
Temp Baro Wind Neerslag
  EWN Forecast EWN WRFDA DWD ICON FMI HIRLAM MET Norway GFS
 04:46     22:24    Daglengte: 17:38 Vandaag
08:00 10.0° 1004.3 hPa 7.9 m/s 3.0 mm 9.9° 1002.2 hPa 9.2 m/s 13.5 mm 10.1° 1004.6 hPa 7.2 m/s 3.2 mm 10.2° 1004.1 hPa 7.5 m/s 0.0 mm 9.7° 1003.9 hPa 9.1 m/s
11:00 10.4° 1006.4 hPa 7.5 m/s 3.4 mm 10.3° 1004.7 hPa 7.3 m/s 21.0 mm 10.4° 1006.8 hPa 6.8 m/s 0.6 mm 10.6° 1006.0 hPa 7.5 m/s 0.0 mm 9.8° 1006.5 hPa 7.9 m/s
14:00 10.9° 1007.5 hPa 7.4 m/s 1.8 mm 10.9° 1006.1 hPa 7.1 m/s 22.6 mm 11.0° 1008.0 hPa 6.6 m/s 0.3 mm 11.2° 1007.3 hPa 7.8 m/s 0.0 mm 9.9° 1007.6 hPa 7.8 m/s
17:00 11.0° 1007.9 hPa 6.3 m/s 0.0 mm 10.7° 1005.8 hPa 7.1 m/s 23.1 mm 11.0° 1008.2 hPa 5.7 m/s 0.2 mm 11.4° 1007.8 hPa 6.4 m/s 0.0 mm 10.0° 1007.6 hPa 7.6 m/s
20:00 10.2° 1006.1 hPa 4.7 m/s 0.0 mm 10.0° 1004.4 hPa 4.9 m/s 23.3 mm 10.4° 1006.0 hPa 4.5 m/s 0.1 mm 10.0° 1006.2 hPa 4.6 m/s 0.0 mm 9.8° 1006.5 hPa 4.5 m/s
23:00 9.3° 1005.6 hPa 4.1 m/s 2.5 mm 9.4° 1003.2 hPa 4.3 m/s 23.8 mm 8.4° 1005.5 hPa 4.0 m/s 2.5 mm 9.4° 1006.1 hPa 4.1 m/s 0.0 mm 9.2° 1005.7 hPa 6.4 m/s
 04:44     22:26    Daglengte: 17:42 Morgen
02:00 8.6° 1005.2 hPa 3.8 m/s 7.3 mm 8.7° 1002.9 hPa 6.3 m/s 32.0 mm 8.4° 1004.9 hPa 3.2 m/s 0.5 mm 8.5° 1005.6 hPa 3.4 m/s 0.0 mm 8.6° 1005.2 hPa 6.0 m/s
05:00 8.7° 1004.1 hPa 4.7 m/s 8.7 mm 8.1° 1002.1 hPa 5.1 m/s 35.3 mm 7.9° 1004.3 hPa 3.4 m/s 2.8 mm 8.8° 1004.4 hPa 6.9 m/s 0.0 mm 8.5° 1004.6 hPa 7.0 m/s
08:00 8.9° 1004.3 hPa 5.0 m/s 2.9 mm 8.3° 1001.9 hPa 4.9 m/s 38.1 mm 8.1° 1004.3 hPa 4.1 m/s 2.3 mm 9.1° 1005.5 hPa 6.2 m/s 0.0 mm 8.9° 1004.0 hPa 6.0 m/s
11:00 9.6° 1005.1 hPa 6.6 m/s 6.3 mm 9.4° 1003.4 hPa 7.2 m/s 40.9 mm 9.5° 1005.2 hPa 5.6 m/s 0.7 mm 9.8° 1005.7 hPa 7.5 m/s 0.0 mm 9.4° 1004.7 hPa 7.2 m/s
14:00 10.3° 1005.9 hPa 7.2 m/s 0.0 mm 10.7° 1004.8 hPa 8.0 m/s 41.3 mm 10.8° 1006.1 hPa 7.1 m/s 0.0 mm 10.2° 1006.2 hPa 8.5 m/s 0.0 mm 9.7° 1005.7 hPa 9.3 m/s
17:00 10.6° 1007.1 hPa 9.6 m/s 0.0 mm 10.1° 1006.4 hPa 10.1 m/s 41.3 mm 11.2° 1007.3 hPa 8.9 m/s 0.0 mm 10.5° 1007.3 hPa 9.5 m/s 0.0 mm 9.8° 1006.5 hPa 11.7 m/s
20:00 10.2° 1008.4 hPa 9.7 m/s 0.0 mm 10.1° 1008.6 hPa 11.7 m/s 41.3 mm 10.5° 1008.5 hPa 9.2 m/s 0.0 mm 10.3° 1008.4 hPa 9.3 m/s 0.0 mm 10.1° 1007.5 hPa 13.1 m/s
23:00 9.1° 1010.0 hPa 10.1 m/s 0.0 mm 8.6° 1010.3 hPa 10.0 m/s 41.3 mm 9.1° 1010.0 hPa 10.2 m/s 0.0 mm 9.7° 1010.0 hPa 8.3 m/s 0.0 mm 9.6° 1009.1 hPa 14.0 m/s
 04:43     22:28    Daglengte: 17:45 Zaterdag 28 Mei
02:00 9.1° 1010.3 hPa 9.6 m/s 0.0 mm 9.0° 1010.8 hPa 9.3 m/s 41.9 mm 8.8° 1011.2 hPa 9.6 m/s 0.0 mm 9.6° 1010.0 hPa 8.0 m/s 0.0 mm 9.8° 1009.9 hPa 16.5 m/s
05:00 9.2° 1011.4 hPa 10.3 m/s 0.0 mm 8.2° 1011.9 hPa 10.0 m/s 42.5 mm 9.2° 1011.3 hPa 8.9 m/s 0.0 mm 9.7° 1011.4 hPa 15.5 m/s
08:00 9.7° 1012.4 hPa 9.8 m/s 0.0 mm 8.5° 1012.9 hPa 9.5 m/s 43.1 mm 10.0° 1011.6 hPa 8.8 m/s 0.0 mm 9.7° 1012.7 hPa 14.6 m/s
11:00 10.5° 1013.4 hPa 10.4 m/s 0.0 mm 8.9° 1014.2 hPa 10.0 m/s 43.7 mm 11.0° 1012.2 hPa 10.3 m/s 0.0 mm 10.0° 1013.0 hPa 15.0 m/s
14:00 11.2° 1014.0 hPa 11.4 m/s 0.0 mm 10.7° 1014.6 hPa 10.8 m/s 43.9 mm 11.7° 1012.9 hPa 11.0 m/s 0.0 mm 10.6° 1013.9 hPa 13.6 m/s
17:00 10.5° 1014.4 hPa 11.6 m/s 0.0 mm 10.1° 1014.9 hPa 10.9 m/s 43.9 mm 11.0° 1013.5 hPa 11.1 m/s 0.0 mm 10.6° 1013.9 hPa 13.9 m/s
20:00 9.4° 1014.8 hPa 10.9 m/s 0.0 mm 8.6° 1015.0 hPa 10.6 m/s 43.9 mm 9.7° 1013.9 hPa 10.3 m/s 0.0 mm 9.5° 1014.0 hPa 14.9 m/s
23:00 8.6° 1014.2 hPa 10.2 m/s 0.0 mm 7.5° 1014.2 hPa 8.7 m/s 43.9 mm 8.8° 1013.5 hPa 10.4 m/s 0.0 mm 8.9° 1013.1 hPa 14.8 m/s
 04:41     22:30    Daglengte: 17:49 Zondag 29 Mei
02:00 8.1° 1012.8 hPa 9.0 m/s 0.0 mm 7.1° 1013.0 hPa 7.7 m/s 44.0 mm 8.3° 1012.7 hPa 9.3 m/s 0.0 mm 8.6° 1011.8 hPa 12.3 m/s
05:00 7.6° 1011.8 hPa 7.7 m/s 0.0 mm 5.7° 1011.7 hPa 6.0 m/s 44.1 mm 8.1° 1011.8 hPa 8.1 m/s 0.0 mm 8.7° 1010.6 hPa 10.3 m/s
08:00 8.4° 1010.9 hPa 7.0 m/s 0.0 mm 7.8° 1010.8 hPa 6.1 m/s 44.6 mm 8.6° 1011.0 hPa 7.3 m/s 0.0 mm 8.6° 1010.2 hPa 9.2 m/s
11:00 9.1° 1009.5 hPa 7.1 m/s 23.3 mm 9.1° 1009.5 hPa 7.1 m/s 23.3 mm
14:00 10.0° 1008.6 hPa 5.4 m/s 23.3 mm 10.0° 1008.6 hPa 5.4 m/s 23.3 mm
17:00 10.3° 1008.1 hPa 6.3 m/s 23.3 mm 10.3° 1008.1 hPa 6.3 m/s 23.3 mm
20:00 10.2° 1008.0 hPa 2.3 m/s 23.4 mm 10.2° 1008.0 hPa 2.3 m/s 23.4 mm
23:00 9.4° 1008.8 hPa 3.9 m/s 24.5 mm 9.4° 1008.8 hPa 3.9 m/s 24.5 mm
 04:40     22:31    Daglengte: 17:51 Maandag 30 Mei
02:00 11.1° 1008.6 hPa 3.3 m/s 24.7 mm 11.1° 1008.6 hPa 3.3 m/s 24.7 mm
05:00 10.8° 1009.2 hPa 2.0 m/s 24.7 mm 10.8° 1009.2 hPa 2.0 m/s 24.7 mm
08:00 11.4° 1010.2 hPa 1.5 m/s 24.7 mm 11.4° 1010.2 hPa 1.5 m/s 24.7 mm
11:00 12.1° 1010.7 hPa 2.3 m/s 24.8 mm 12.1° 1010.7 hPa 2.3 m/s 24.8 mm
14:00 12.1° 1010.7 hPa 3.4 m/s 24.8 mm 12.1° 1010.7 hPa 3.4 m/s 24.8 mm
17:00 11.5° 1010.5 hPa 5.4 m/s 25.0 mm 11.5° 1010.5 hPa 5.4 m/s 25.0 mm
20:00 10.8° 1010.5 hPa 4.3 m/s 25.0 mm 10.8° 1010.5 hPa 4.3 m/s 25.0 mm
23:00 10.3° 1010.9 hPa 2.5 m/s 25.0 mm 10.3° 1010.9 hPa 2.5 m/s 25.0 mm
 04:39     22:33    Daglengte: 17:54 Dinsdag 31 Mei
02:00 9.9° 1010.9 hPa 1.4 m/s 25.0 mm 9.9° 1010.9 hPa 1.4 m/s 25.0 mm
05:00 9.7° 1010.6 hPa 0.9 m/s 25.0 mm 9.7° 1010.6 hPa 0.9 m/s 25.0 mm
08:00 10.2° 1010.9 hPa 1.1 m/s 25.0 mm 10.2° 1010.9 hPa 1.1 m/s 25.0 mm
11:00 10.6° 1011.6 hPa 1.6 m/s 25.0 mm 10.6° 1011.6 hPa 1.6 m/s 25.0 mm
14:00 11.0° 1012.0 hPa 2.1 m/s 25.0 mm 11.0° 1012.0 hPa 2.1 m/s 25.0 mm
17:00 11.2° 1012.3 hPa 1.8 m/s 25.0 mm 11.2° 1012.3 hPa 1.8 m/s 25.0 mm
20:00 11.3° 1012.6 hPa 1.0 m/s 25.0 mm 11.3° 1012.6 hPa 1.0 m/s 25.0 mm
23:00 10.6° 1013.1 hPa 1.2 m/s 25.0 mm 10.6° 1013.1 hPa 1.2 m/s 25.0 mm
 04:37     22:35    Daglengte: 17:58 Woensdag 01 Jun
02:00 9.9° 1013.5 hPa 1.9 m/s 25.0 mm 9.9° 1013.5 hPa 1.9 m/s 25.0 mm
05:00 9.4° 1014.2 hPa 2.0 m/s 25.0 mm 9.4° 1014.2 hPa 2.0 m/s 25.0 mm
08:00 10.0° 1015.3 hPa 1.4 m/s 25.0 mm 10.0° 1015.3 hPa 1.4 m/s 25.0 mm
11:00 10.7° 1015.5 hPa 1.6 m/s 25.0 mm 10.7° 1015.5 hPa 1.6 m/s 25.0 mm
14:00 11.2° 1016.7 hPa 2.3 m/s 25.0 mm 11.2° 1016.7 hPa 2.3 m/s 25.0 mm
17:00 11.6° 1017.3 hPa 2.3 m/s 25.0 mm 11.6° 1017.3 hPa 2.3 m/s 25.0 mm
20:00 11.4° 1017.1 hPa 1.6 m/s 25.0 mm 11.4° 1017.1 hPa 1.6 m/s 25.0 mm
23:00 10.8° 1016.9 hPa 1.0 m/s 25.0 mm 10.8° 1016.9 hPa 1.0 m/s 25.0 mm
 04:36     22:36    Daglengte: 18:00 Donderdag 02 Jun
02:00 10.8° 1017.3 hPa 1.0 m/s 25.0 mm 10.8° 1017.3 hPa 1.0 m/s 25.0 mm
05:00 10.6° 1017.0 hPa 1.7 m/s 25.0 mm 10.6° 1017.0 hPa 1.7 m/s 25.0 mm
08:00 10.8° 1017.3 hPa 2.0 m/s 25.0 mm 10.8° 1017.3 hPa 2.0 m/s 25.0 mm
14:00 12.1° 1017.6 hPa 2.4 m/s 25.0 mm 12.1° 1017.6 hPa 2.4 m/s 25.0 mm
20:00 12.5° 1016.7 hPa 1.2 m/s 25.0 mm 12.5° 1016.7 hPa 1.2 m/s 25.0 mm
 04:35     22:38    Daglengte: 18:03 Vrijdag 03 Jun
02:00 12.3° 1016.6 hPa 1.8 m/s 25.0 mm 12.3° 1016.6 hPa 1.8 m/s 25.0 mm
08:00 13.0° 1016.8 hPa 0.2 m/s 25.0 mm 13.0° 1016.8 hPa 0.2 m/s 25.0 mm
14:00 13.6° 1018.2 hPa 3.7 m/s 25.0 mm 13.6° 1018.2 hPa 3.7 m/s 25.0 mm
20:00 13.9° 1018.3 hPa 2.7 m/s 25.0 mm 13.9° 1018.3 hPa 2.7 m/s 25.0 mm
 04:34     22:39    Daglengte: 18:05 Zaterdag 04 Jun
02:00 13.4° 1019.0 hPa 2.3 m/s 25.1 mm 13.4° 1019.0 hPa 2.3 m/s 25.0 mm
08:00 13.9° 1019.7 hPa 3.1 m/s 25.8 mm 13.9° 1019.7 hPa 3.1 m/s 25.8 mm
14:00 17.6° 1019.7 hPa 1.7 m/s 25.8 mm 17.6° 1019.7 hPa 1.7 m/s 25.8 mm
20:00 14.0° 1020.2 hPa 5.0 m/s 27.9 mm 14.0° 1020.2 hPa 5.0 m/s 27.9 mm
 04:33     22:41    Daglengte: 18:08 Zondag 05 Jun
02:00 10.4° 1016.4 hPa 2.4 m/s 0.3 mm
08:00 11.4° 1015.8 hPa 2.3 m/s 0.5 mm
14:00 13.4° 1015.9 hPa 3.4 m/s 0.6 mm
20:00 12.6° 1015.0 hPa 3.1 m/s 0.2 mm
 04:32     22:42    Daglengte: 18:10 Maandag 06 Jun
02:00 10.9° 1015.4 hPa 1.9 m/s 0.2 mm
08:00 12.2° 1015.0 hPa 1.5 m/s 0.6 mm
14:00 13.9° 1014.9 hPa 3.8 m/s 0.6 mm
20:00 12.8° 1014.0 hPa 3.2 m/s 0.4 mm
 04:31     22:43    Daglengte: 18:12 Dinsdag 07 Jun
02:00 10.9° 1013.6 hPa 1.8 m/s 0.2 mm
08:00 12.1° 1012.3 hPa 1.1 m/s 0.5 mm
14:00 13.8° 1011.8 hPa 3.0 m/s 0.2 mm
20:00 12.7° 1011.3 hPa 2.7 m/s 0.6 mm
 04:30     22:44    Daglengte: 18:14 Woensdag 08 Jun
02:00 11.0° 1011.2 hPa 1.6 m/s 0.8 mm
08:00 12.1° 1010.9 hPa 1.6 m/s 0.7 mm
14:00 13.4° 1011.2 hPa 3.2 m/s 0.8 mm
20:00 12.7° 1010.7 hPa 3.1 m/s 0.8 mm
 04:29     22:46    Daglengte: 18:17 Donderdag 09 Jun
02:00 11.2° 1010.8 hPa 1.4 m/s 0.3 mm
08:00 12.2° 1010.2 hPa 1.0 m/s 0.6 mm
14:00 13.8° 1010.2 hPa 1.4 m/s 0.6 mm
20:00 12.8° 1009.9 hPa 1.8 m/s 0.9 mm
 04:29     22:47    Daglengte: 18:18 Vrijdag 10 Jun
02:00 11.4° 1010.1 hPa 1.0 m/s 1.1 mm
FMI Hirlam - 7.5 km EWN WRFDA - 12 km DWD ICON - 7 km GFS - 25 km Basiskaart